EW9634 Weather Reports


Display with metric or nautical units.
time (UTC)temp
F
wind
direction
speed
MPH
gust
MPH
rain 1hr
in
rain 24hr
in
rain mn
in
humidity
%
barometer
mb
20260831231403 95 158 2.0 6.0 0.00 0.00 0.00 47 1010.9
20260831230403 96 180 3.0 6.0 0.00 0.00 0.00 44 1010.8
20260831225402 96 225 3.0 4.0 0.00 0.00 0.00 42 1010.7
20260831224403 96 135 4.0 7.0 0.00 0.00 0.00 43 1010.8
20260831223423 97 203 4.0 5.0 0.00 0.00 0.00 42 1010.9
20260831222403 98 225 4.0 7.0 0.00 0.00 0.00 42 1010.9
20260831221403 97 225 4.0 6.0 0.00 0.00 0.00 41 1011.0
20260831220403 98 203 4.0 8.0 0.00 0.00 0.00 42 1011.0
20260831215403 98 180 6.0 9.0 0.00 0.00 0.00 41 1010.9
20260831214402 98 203 4.0 7.0 0.00 0.00 0.00 42 1011.1
20260831213423 98 203 5.0 8.0 0.00 0.00 0.00 41 1011.0
20260831212402 98 225 6.0 9.0 0.00 0.00 0.00 43 1011.0
20260831211402 98 203 7.0 10.0 0.00 0.00 0.00 42 1011.1
20260831210523 98 225 6.0 10.0 0.00 0.00 0.00 44 1011.1
20260831205403 98 225 7.0 10.0 0.00 0.00 0.00 42 1011.2
20260831204402 98 225 4.0 8.0 0.00 0.00 0.00 44 1011.3
20260831203402 98 203 5.0 13.0 0.00 0.00 0.00 45 1011.4
20260831202403 97 203 7.0 8.0 0.00 0.00 0.00 44 1011.4
20260831201402 98 225 6.0 10.0 0.00 0.00 0.00 45 1011.5
20260831200402 97 225 7.0 9.0 0.00 0.00 0.00 44 1011.5
20260831195402 97 203 7.0 11.0 0.00 0.00 0.00 45 1011.5
20260831194402 97 225 11.0 15.0 0.00 0.00 0.00 44 1011.5
20260831193402 97 203 6.0 11.0 0.00 0.00 0.00 46 1011.6
20260831192443 97 203 7.0 11.0 0.00 0.00 0.00 46 1011.6
20260831191422 96 225 8.0 11.0 0.00 0.00 0.00 45 1011.8
20260831190422 96 203 6.0 9.0 0.00 0.00 0.00 45 1011.8
20260831185423 96 248 10.0 17.0 0.00 0.00 0.00 48 1011.8
20260831184402 96 225 5.0 8.0 0.00 0.00 0.00 47 1011.8
20260831183402 95 203 10.0 16.0 0.00 0.00 0.00 48 1012.0
20260831182402 95 203 11.0 15.0 0.00 0.00 0.00 49 1012.1
20260831181403 94 203 8.0 11.0 0.00 0.00 0.00 50 1012.1
20260831180402 94 203 8.0 12.0 0.00 0.00 0.00 49 1012.4
20260831175402 93 203 9.0 14.0 0.00 0.00 0.00 51 1012.4
20260831174422 92 225 7.0 12.0 0.00 0.00 0.00 52 1012.4
20260831173402 92 203 6.0 8.0 0.00 0.00 0.00 55 1012.6
20260831172402 91 203 9.0 14.0 0.00 0.00 0.00 54 1012.7
20260831171402 91 225 7.0 13.0 0.00 0.00 0.00 56 1012.9
20260831170402 91 225 9.0 12.0 0.00 0.00 0.00 55 1012.9
20260831165402 91 225 7.0 13.0 0.00 0.00 0.00 56 1013.1
20260831164422 90 225 7.0 11.0 0.00 0.00 0.00 56 1013.1
20260831163402 90 225 7.0 10.0 0.00 0.00 0.00 56 1013.1
20260831162402 90 203 4.0 7.0 0.00 0.00 0.00 57 1013.2
20260831161402 90 225 6.0 9.0 0.00 0.00 0.00 56 1013.1
20260831160402 89 225 5.0 9.0 0.00 0.00 0.00 57 1013.1
20260831155402 88 248 3.0 5.0 0.00 0.00 0.00 59 1013.1
20260831154423 87 203 8.0 12.0 0.00 0.00 0.00 60 1013.0
20260831153402 86 248 7.0 11.0 0.00 0.00 0.00 62 1013.0
20260831152402 85 203 5.0 10.0 0.00 0.00 0.00 61 1012.9
20260831151402 85 225 9.0 11.0 0.00 0.00 0.00 62 1012.9
20260831150402 84 225 8.0 13.0 0.00 0.00 0.00 64 1012.8
20260831145402 83 225 8.0 13.0 0.00 0.00 0.00 65 1012.6
20260831144422 82 203 8.0 12.0 0.00 0.00 0.00 66 1012.7
20260831143402 81 225 7.0 10.0 0.00 0.00 0.00 67 1012.8
20260831142402 81 180 8.0 12.0 0.00 0.00 0.00 66 1012.8
20260831141402 80 225 11.0 15.0 0.00 0.00 0.00 67 1012.7
20260831140402 80 225 9.0 13.0 0.00 0.00 0.00 68 1012.8
20260831135401 79 203 5.0 7.0 0.00 0.00 0.00 69 1012.7
20260831134402 79 225 5.0 14.0 0.00 0.00 0.00 69 1012.9
20260831133402 79 225 8.0 12.0 0.00 0.00 0.00 68 1012.9
20260831132401 78 203 7.0 10.0 0.00 0.00 0.00 68 1012.9
20260831131402 78 180 3.0 6.0 0.00 0.00 0.00 70 1012.8
20260831130401 77 248 7.0 9.0 0.00 0.00 0.00 69 1012.7
20260831125401 77 203 6.0 10.0 0.00 0.00 0.00 70 1012.6
20260831124402 76 158 7.0 10.0 0.00 0.00 0.00 71 1012.4
20260831123401 76 180 5.0 8.0 0.00 0.00 0.00 71 1012.2
20260831122402 76 180 4.0 6.0 0.00 0.00 0.00 71 1012.2
20260831121401 76 203 5.0 8.0 0.00 0.00 0.00 71 1012.3
20260831120402 76 180 5.0 8.0 0.00 0.00 0.00 71 1012.3
20260831115325 76 180 4.0 9.0 0.00 0.00 0.00 71 1012.3
20260831114304 76 180 4.0 6.0 0.00 0.00 0.00 70 1012.1
20260831113304 76 180 3.0 7.0 0.00 0.00 0.00 70 1012.0
20260831112307 77 180 3.0 7.0 0.00 0.00 0.00 69 1012.0
20260831111304 77 180 6.0 7.0 0.00 0.00 0.00 69 1011.9
20260831110304 77 180 7.0 13.0 0.00 0.00 0.00 68 1011.8
20260831105306 77 180 6.0 9.0 0.00 0.00 0.00 68 1011.8
20260831104303 77 203 5.0 7.0 0.00 0.00 0.00 68 1011.6
20260831103304 77 203 7.0 10.0 0.00 0.00 0.00 68 1011.5
20260831102305 77 203 6.0 10.0 0.00 0.00 0.00 69 1011.3
20260831101303 77 180 4.0 7.0 0.00 0.00 0.00 68 1011.4
20260831100324 77 180 5.0 9.0 0.00 0.00 0.00 68 1011.4
20260831095323 77 203 4.0 6.0 0.00 0.00 0.00 69 1011.2
20260831094303 77 180 3.0 8.0 0.00 0.00 0.00 69 1011.1
20260831093303 77 135 4.0 7.0 0.00 0.00 0.00 69 1011.1
20260831092306 77 158 4.0 10.0 0.00 0.00 0.00 69 1011.1
20260831091303 77 158 3.0 6.0 0.00 0.00 0.00 69 1011.1
20260831090404 77 180 2.0 3.0 0.00 0.00 0.00 68 1011.1
20260831085306 77 203 3.0 5.0 0.00 0.00 0.00 68 1011.1
20260831084308 78 158 3.0 4.0 0.00 0.00 0.00 67 1011.1
20260831083303 78 180 3.0 4.0 0.00 0.00 0.00 66 1011.2
20260831082323 78 180 2.0 5.0 0.00 0.00 0.00 66 1011.1
20260831081304 79 203 4.0 7.0 0.00 0.00 0.00 65 1011.1
20260831080303 79 203 5.0 9.0 0.00 0.00 0.00 65 1011.1
20260831075306 79 135 1.0 3.0 0.00 0.00 0.00 65 1011.0
20260831074303 79 180 2.0 6.0 0.00 0.00 0.00 64 1010.8
20260831073303 79 203 3.0 5.0 0.00 0.00 0.00 64 1010.8
20260831072306 79 158 1.0 4.0 0.00 0.00 0.00 64 1010.7
20260831071324 79 158 2.0 3.0 0.00 0.00 0.00 64 1010.6
20260831070303 79 180 3.0 6.0 0.00 0.00 0.00 63 1010.6
20260831065306 80 180 1.0 2.0 0.00 0.00 0.00 62 1010.5
20260831064323 80 158 1.0 2.0 0.00 0.00 0.00 62 1010.4
20260831063303 80 180 3.0 5.0 0.00 0.00 0.00 62 1010.3
20260831062305 80 180 1.0 2.0 0.00 0.00 0.00 62 1010.2
20260831061303 81 158 1.0 2.0 0.00 0.00 0.00 61 1010.1
20260831060303 81 180 3.0 7.0 0.00 0.00 0.00 60 1010.1
20260831055306 81 158 3.0 6.0 0.00 0.00 0.00 59 1010.1
20260831054303 82 158 3.0 4.0 0.00 0.00 0.00 59 1010.1
20260831053303 82 158 3.0 5.0 0.00 0.00 0.00 58 1010.0
20260831052306 82 158 3.0 5.0 0.00 0.00 0.00 58 1010.0
20260831051303 83 135 5.0 9.0 0.00 0.00 0.00 58 1010.0
20260831050303 83 158 5.0 10.0 0.00 0.00 0.00 57 1009.9
20260831045423 83 180 4.0 6.0 0.00 0.00 0.00 57 1009.8
20260831044404 83 158 4.0 7.0 0.00 0.00 0.00 57 1009.7
20260831043425 83 180 4.0 10.0 0.00 0.00 0.00 57 1009.7
20260831042403 83 180 5.0 8.0 0.00 0.00 0.00 58 1009.7
20260831041403 83 158 4.0 6.0 0.00 0.00 0.00 58 1009.7
20260831040403 83 135 4.0 10.0 0.00 0.00 0.00 59 1009.7
20260831035403 83 158 4.0 7.0 0.00 0.00 0.00 58 1009.9
20260831034424 83 135 3.0 6.0 0.00 0.00 0.00 59 1009.9
20260831033403 83 158 4.0 9.0 0.00 0.00 0.00 60 1009.8
20260831032403 82 158 2.0 4.0 0.00 0.00 0.00 61 1009.7
20260831031403 82 180 2.0 5.0 0.00 0.00 0.00 62 1009.6
20260831030423 82 135 2.0 3.0 0.00 0.00 0.00 63 1009.6
20260831025403 82 135 3.0 5.0 0.00 0.00 0.00 62 1009.5
20260831024423 82 158 3.0 5.0 0.00 0.00 0.00 62 1009.4
20260831023403 83 135 1.0 3.0 0.00 0.00 0.00 60 1009.4
20260831022403 84 135 3.0 5.0 0.00 0.00 0.00 60 1009.3
20260831021403 84 158 1.0 3.0 0.00 0.00 0.00 59 1009.2
20260831020403 85 158 2.0 4.0 0.00 0.00 0.00 58 1009.1
20260831015403 85 158 2.0 3.0 0.00 0.00 0.00 57 1009.0
20260831014403 85 158 2.0 4.0 0.00 0.00 0.00 57 1008.8
20260831013403 85 158 3.0 6.0 0.00 0.00 0.00 57 1008.7
20260831012403 86 158 3.0 4.0 0.00 0.00 0.00 56 1008.6
20260831011403 87 158 2.0 5.0 0.00 0.00 0.00 55 1008.6
20260831010403 88 158 1.0 3.0 0.00 0.00 0.00 54 1008.6
20260831005403 88 180 2.0 3.0 0.00 0.00 0.00 53 1008.4
20260831004403 89 203 2.0 3.0 0.00 0.00 0.00 53 1008.4
20260831003403 90 180 2.0 6.0 0.00 0.00 0.00 51 1008.5
20260831002403 91 113 1.0 3.0 0.00 0.00 0.00 51 1008.4
20260831001403 92 158 3.0 4.0 0.00 0.00 0.00 50 1008.4
20260831000403 93 180 3.0 6.0 0.00 0.00 0.00 47 1008.3
20260830235423 94 135 4.0 8.0 0.00 0.00 0.00 46 1008.2
20260830234403 94 158 5.0 8.0 0.00 0.00 0.00 46 1008.2
20260830233403 95 180 5.0 7.0 0.00 0.00 0.00 45 1008.2
20260830232403 96 158 4.0 6.0 0.00 0.00 0.00 44 1008.4